GW5068 Weather Reports


time (UTC)temp
C
wind
direction
speed
KPH
gust
KPH
rain 1hr
cm
rain 24hr
cm
rain mn
cm
humidity
%
barometer
mb
20260906220022 27 196 4.8 14.5 0.00 0.00 0.00 40 1001.9
20260906214601 27 163 4.8 16.1 0.00 0.00 0.00 39 1002.2
20260906213039 27 192 4.8 12.9 0.00 0.00 0.00 39 1002.3
20260906211514 28 146 4.8 19.3 0.00 0.00 0.00 38 1002.4
20260906210053 28 262 6.4 19.3 0.00 0.00 0.00 38 1002.6
20260906204529 28 153 4.8 17.7 0.00 0.00 0.00 37 1002.7
20260906203014 29 124 4.8 17.7 0.00 0.00 0.00 35 1002.9
20260906201545 29 181 4.8 14.5 0.00 0.00 0.00 34 1003.1
20260906200022 29 160 6.4 14.5 0.00 0.00 0.00 35 1003.3
20260906194556 29 170 3.2 11.3 0.00 0.00 0.00 35 1003.5
20260906193033 29 176 4.8 17.7 0.00 0.00 0.00 35 1003.7
20260906191510 29 147 4.8 14.5 0.00 0.00 0.00 36 1003.9
20260906190104 28 179 4.8 12.9 0.00 0.00 0.00 37 1004.1
20260906184525 29 169 4.8 14.5 0.00 0.00 0.00 35 1004.3
20260906183111 28 169 3.2 16.1 0.00 0.00 0.00 35 1004.8
20260906181542 28 144 3.2 11.3 0.00 0.00 0.00 35 1005.0
20260906180021 28 99 3.2 9.7 0.00 0.00 0.00 34 1005.2
20260906174559 28 162 3.2 9.7 0.00 0.00 0.00 35 1005.5
20260906173039 28 148 1.6 8.0 0.00 0.00 0.00 33 1005.8
20260906171513 27 217 3.2 12.9 0.00 0.00 0.00 36 1006.0
20260906170117 26 146 1.6 6.4 0.00 0.00 0.00 40 1006.3
20260906164535 25 158 3.2 8.0 0.00 0.00 0.00 40 1006.4
20260906163014 25 101 1.6 4.8 0.00 0.00 0.00 38 1006.7
20260906161555 23 120 1.6 6.4 0.00 0.00 0.00 42 1006.8
20260906160036 23 85 1.6 6.4 0.00 0.00 0.00 44 1006.7
20260906154521 22 36 1.6 6.4 0.00 0.00 0.00 43 1006.7
20260906153058 21 121 0.0 6.4 0.00 0.00 0.00 47 1006.6
20260906151605 21 73 4.8 11.3 0.00 0.00 0.00 50 1006.5
20260906150032 20 2 6.4 11.3 0.00 0.00 0.00 52 1006.5
20260906144520 19 32 4.8 11.3 0.00 0.00 0.00 54 1006.5
20260906143128 19 18 6.4 9.7 0.00 0.00 0.00 54 1006.5
20260906141541 18 39 6.4 11.3 0.00 0.00 0.00 54 1006.5
20260906140021 18 5 6.4 12.9 0.00 0.00 0.00 54 1006.4
20260906134502 18 23 0.0 1.6 0.00 0.00 0.00 56 1006.3
20260906133046 17 27 1.6 9.7 0.00 0.00 0.00 56 1006.2
20260906131531 16 31 6.4 11.3 0.00 0.00 0.00 56 1006.0
20260906130021 16 38 6.4 9.7 0.00 0.00 0.00 56 1006.2
20260906124601 16 14 4.8 8.0 0.00 0.00 0.00 56 1006.2
20260906123112 16 33 4.8 8.0 0.00 0.00 0.00 54 1006.0
20260906121527 16 21 4.8 8.0 0.00 0.00 0.00 55 1006.0
20260906120008 16 356 4.8 9.7 0.00 0.00 0.00 54 1006.1
20260906114559 16 27 3.2 8.0 0.00 0.00 0.00 54 1006.1
20260906113041 16 21 3.2 8.0 0.00 0.00 0.00 56 1006.0
20260906111527 16 18 3.2 6.4 0.00 0.00 0.00 57 1006.1
20260906110003 16 30 4.8 6.4 0.00 0.00 0.00 55 1006.0
20260906104549 16 25 3.2 6.4 0.00 0.00 0.00 54 1006.0
20260906103033 16 8 3.2 3.2 0.00 0.00 0.00 57 1006.0
20260906101517 16 11 0.0 1.6 0.00 0.00 0.00 54 1006.2
20260906094547 16 13 1.6 1.6 0.00 0.00 0.00 58 1006.4
20260906093028 15 13 1.6 3.2 0.00 0.00 0.00 60 1006.3
20260906091515 16 11 3.2 4.8 0.00 0.00 0.00 60 1006.0
20260906084548 16 14 0.0 3.2 0.00 0.00 0.00 61 1006.0
20260906083034 16 14 0.0 1.6 0.00 0.00 0.00 67 1005.9
20260906081513 16 14 0.0 1.6 0.00 0.00 0.00 66 1006.1
20260906074549 16 15 0.0 1.6 0.00 0.00 0.00 68 1006.0
20260906073030 16 20 0.0 1.6 0.00 0.00 0.00 69 1006.2
20260906071516 16 20 0.0 1.6 0.00 0.00 0.00 68 1006.2
20260906070003 17 20 0.0 3.2 0.00 0.00 0.00 68 1005.9
20260906064552 17 28 1.6 3.2 0.00 0.00 0.00 67 1006.4
20260906063101 18 37 4.8 9.7 0.00 0.00 0.00 65 1006.1
20260906061543 17 37 3.2 11.3 0.00 0.00 0.00 66 1006.0
20260906060030 17 8 3.2 4.8 0.00 0.00 0.00 70 1005.8
20260906054518 17 20 0.0 6.4 0.00 0.00 0.00 69 1006.0
20260906053006 17 347 1.6 1.6 0.00 0.00 0.00 71 1005.9
20260906051601 17 269 0.0 0.0 0.00 0.00 0.00 70 1005.9
20260906050048 17 269 0.0 0.0 0.00 0.00 0.00 71 1005.9
20260906044533 16 269 0.0 1.6 0.00 0.00 0.00 70 1006.0
20260906043028 17 269 0.0 1.6 0.00 0.00 0.00 70 1006.0
20260906041507 17 269 0.0 0.0 0.00 0.00 0.00 68 1006.2
20260906040056 17 269 0.0 1.6 0.00 0.00 0.00 68 1006.2
20260906034546 17 269 0.0 1.6 0.00 0.00 0.00 65 1006.2
20260906033039 17 269 0.0 1.6 0.00 0.00 0.00 61 1006.2
20260906031524 18 269 0.0 1.6 0.00 0.00 0.00 56 1006.2
20260906030019 20 269 0.0 4.8 0.00 0.00 0.00 55 1006.0
20260906024550 19 214 0.0 4.8 0.00 0.00 0.00 55 1005.9
20260906023048 20 13 0.0 1.6 0.00 0.00 0.00 44 1005.2
20260906021527 20 13 1.6 3.2 0.00 0.00 0.00 44 1004.9
20260906020014 20 14 1.6 3.2 0.00 0.00 0.00 45 1004.7
20260906014505 21 14 0.0 1.6 0.00 0.00 0.00 43 1004.4
20260906013107 20 14 1.6 1.6 0.00 0.00 0.00 44 1004.4
20260906011559 20 15 1.6 3.2 0.00 0.00 0.00 46 1004.3
20260906010039 21 15 1.6 3.2 0.00 0.00 0.00 44 1004.4
20260906004521 22 15 0.0 4.8 0.00 0.00 0.00 49 1004.5
20260906003010 23 130 0.0 4.8 0.00 0.00 0.00 39 1004.9
20260906001602 23 114 0.0 3.2 0.00 0.00 0.00 36 1004.6
20260906000057 23 103 0.0 9.7 0.00 0.00 0.00 36 1004.5
20260905234545 23 162 0.0 6.4 0.00 0.00 0.00 39 1004.4
20260905233040 24 169 0.0 0.0 0.00 0.00 0.00 41 1004.3
20260905231527 25 169 0.0 0.0 0.00 0.00 0.00 37 1004.2
20260905230018 25 169 0.0 0.0 0.00 0.00 0.00 38 1004.3
20260905224510 25 169 0.0 3.2 0.00 0.00 0.00 35 1004.4
20260905223006 25 170 0.0 3.2 0.00 0.00 0.00 36 1004.4
20260905221556 25 209 1.6 9.7 0.00 0.00 0.00 35 1004.6